Regional Weather Roundup
Issued by NWS

Home | Current Version | Previous Version | Graphics & Text | Print | Product List | Glossary On
Versions: 1 2 3 4 5 6 7 8 9 10 11 12 13 14 15 16 17 18 19 20 21 22 23 24 25 26 27 28 29 30 31 32 33 34 35 36 37 38 39 40 41 42 43 44 45 46 47 48 49 50
363
ASUS45 KBOU 110007
RWRCO

WEATHER ROUNDUP FOR COLORADO
NATIONAL WEATHER SERVICE DENVER/BOULDER CO
500 PM MST WED FEB 10 2016

NOTE: "FAIR" INDICATES FEW OR NO CLOUDS BELOW 12000 FEET WITH NO
SIGNIFICANT WEATHER AND/OR OBSTRUCTIONS TO VISIBILITY.

COZ001>005-013-030-031-110100-
...NORTHWEST COLORADO...

CITY           SKY/WX    TMP DP  RH WIND       PRES   REMARKS
CRAIG          CLOUDY    20  15  81 S3        30.35R
HAYDEN         CLOUDY    27  16  63 S5        30.34R WCI  21
MEEKER         CLOUDY    35  22  58 CALM      30.34R
MOUNT WERNER   NOT AVBL
STEAMBOAT SPGS CLOUDY    28  17  62 W3        30.34R
WALDEN         CLOUDY    37  10  32 SW13      30.29R
$$

COZ006>008-011-110100-
...WEST CENTRAL VALLEYS...

CITY           SKY/WX    TMP DP  RH WIND       PRES   REMARKS
GRAND JUNCTION CLOUDY    37  29  72 N6        30.37S
MONTROSE       CLOUDY    42  25  50 N7        30.36S
EAGLE          CLEAR     41  19  42 CALM      30.35R
RIFLE          CLOUDY    38  21  50 SE5       30.36R
DELTA          CLOUDY    44  31  62 S3        30.36R
NUCLA          CLOUDY    50  23  34 CALM      30.39S
$$

COZ017>023-064>068-110100-
...SOUTHWEST COLORADO...

CITY           SKY/WX    TMP DP  RH WIND       PRES   REMARKS
DURANGO        CLOUDY    38  22  52 NE5       30.35F
CORTEZ         CLOUDY    50  25  37 E3        30.35F
PAGOSA SPRINGS CLOUDY    47  15  27 SW6       30.38S
TELLURIDE      CLOUDY    46   4  18 W8        30.45S
WOLF CREEK PAS CLOUDY    34   3  27 W7        30.53S WCI  28
$$

COZ009-010-012-014-032>034-037-058>063-110100-
...CENTRAL COLORADO...

CITY           SKY/WX    TMP DP  RH WIND       PRES   REMARKS
ASPEN          CLOUDY    37  15  40 CALM      30.35S
BUENA VISTA    CLOUDY    48  13  23 W17       30.28S
COPPER MTN     CLOUDY    34  -6  18 NW21G26   30.43S WCI  22
BERTHOUD PASS  FAIR      27  16  63 NW45G60   30.35F WCI   7
COTTONWOOD PAS CLOUDY    46 -13   8 W7G22     30.37R
GUNNISON       CLOUDY    12   7  79 CALM      30.46F
KREMMLING      CLOUDY    14   7  73 CALM      30.39S
LEADVILLE      CLOUDY    39   2  21 NW12G20   30.37S
MONARCH PASS   CLOUDY    32   3  29 W36       30.54F WCI  16
SALIDA         NOT AVBL
SUNLIGHT       CLEAR     32  12  43 CALM      30.47S
WILKERSON PASS CLOUDY    36   0  21 W17G29    30.39S
$$

COZ069>075-110100-
...SAN LUIS VALLEY/SANGRE DE CRISTO MOUNTAINS...

CITY           SKY/WX    TMP DP  RH WIND       PRES   REMARKS
ALAMOSA        CLEAR     47  19  33 SW5       30.33S
LA VETA PASS   CLEAR     39  10  30 S6        30.39R
SAGUACHE       CLOUDY    43  14  31 S3        30.35S
$$

COZ035-036-038>040-110100-
...NORTHERN COLORADO FRONT RANGE...

CITY           SKY/WX    TMP DP  RH WIND       PRES   REMARKS
DENVER INTL AP CLOUDY    55  19  24 W12       30.10R
DMNS CITY PARK   N/A     62   7  11 NW9       30.11R
AURORA         NOT AVBL
FRONT RANGE AP MOCLDY    48  21  34 MISG      30.11R
ERIE MUNI ARPT CLOUDY    60   8  12 W14G25    30.10R
BOULDER MUN AP CLOUDY    63  10  13 NW21G31   30.10S
CENTENNIAL     CLOUDY    55  16  21 N8        30.13R
BROOMFIELD     MOCLDY    63  10  13 W15G22    30.12R
FORT COLLINS   CLOUDY    55  16  21 NW13      30.10R
LONGMONT       CLOUDY    61  15  16 SW9       30.10S
$$

COZ041-046-047-076>085-087-088-110100-
...PIKES PEAK/PALMER DIVIDE AND SOUTHERN FOOTHILLS...

CITY           SKY/WX    TMP DP  RH WIND       PRES   REMARKS
COLO. SPRINGS  CLOUDY    53  17  24 W7        30.17R
A. F. ACADEMY  MOCLDY    55   7  14 W8        30.17R
SCHRIEVER AFB  FAIR      51  18  26 W10       30.16S
ELLICOTT       LGT RAIN N/A N/A N/A W7        30.15R
FALCON         NOT AVBL
FORT CARSON    CLOUDY    60  16  17 W8        30.13F
LIMON          CLOUDY    40  28  62 W7        30.10R
MONUMENT HILL  CLOUDY    43  16  33 W7        30.20S
TRINIDAD       CLEAR     64   2   8 NW14      30.16R
$$

COZ042>045-048>051-090-091-110100-
...NORTHEAST COLORADO...

CITY           SKY/WX    TMP DP  RH WIND       PRES   REMARKS
GREELEY ARPT   CLOUDY    46  28  49 NW9       30.08R
AKRON          CLOUDY    45  29  53 N10       30.08R
BURLINGTON     CLEAR     43  30  60 SW9       30.05R
WRAY           NOT AVBL
STERLING       CLOUDY    52  28  40 N21       30.04R
HOLYOKE        CLOUDY    54  28  37 NW10G17   30.04R
FORT MORGAN    CLOUDY    49  26  41 N13       30.08R
$$

COZ086-089-092>099-110100-
...SOUTHEAST COLORADO...

CITY           SKY/WX    TMP DP  RH WIND       PRES   REMARKS
PUEBLO         CLEAR     69  10  10 NW12      30.08R
LA JUNTA       CLEAR     68  21  16 W6        30.05S
LAMAR          CLEAR     67  25  20 SW6       30.01S
SPRINGFIELD      N/A     67   7   9 NW5       30.07S
$$




USA.gov is the U.S. government's official web portal to all federal, state and local government web resources and services.